Showing default

CHAMRAN-1, 61072

Orbit data source: Space-Track

CHAMRAN-1, 61072 is an Iranian payload satellite in LEO that was launched on Sat, 14 Sep 2024 UTC via a QAEM-100 launch vehicle from the Sharud Missile Test Site (SMTS). Payload-class satellites include a variety of spacecraft equipped with specific instruments for various scientific and technological missions. These include communications satellites like Starlink; space stations such as the ISS; scientific satellites like the Hubble; Earth observation satellites from companies like Planet Labs, Umbra, and HawkEye 360; GPS; miniature CubeSats for education and research; and military/defense satellites.

Loading next visibility...
Identifier
61072, 2024-165B
Orbit
LEO
Country
Flag of UnknownUnknown / IRAN
Related business
Manufacturer
IEI
Mission
Operational Defense Communications
Bus & Motor
Unknown
Mass
60 kg wet, 60 kg dry
Launch date (UTC)
2024-09-14 (1 year ago)
Launch vehicle
QAEM-100
Launch site
Sharud Missile Test Site (SMTS)
Object type
Payload
Rocket body
Debris
Shape & HBR
Box, 0.3 m
Radar Cross Section
0.375 m², Medium (>0.1 m² and < 1m²)

Expand to show TLE details & history
Last TLE update: 6 hours ago

TLE from 6 hours ago
0 CHAMRAN-1
1 61072U 24165B   25355.21637823  .00003871  00000-0  25065-3 0  9996
2 61072  64.0778 266.6577 0038324 312.1920  47.5942 15.09182571 69787
Epoch: 2025-12-21T05:11Z
TLE epoch observation values (Epoch: 2025-12-21T05:11:35.079Z)
Latitude
-0.00004°
Longitude
98.72951°
Altitude
522.837 km
Speed
7.612 km/s
True Right ascension
17h 46m 37s
True Declination
0° 00' 00"
Sunlit
Object was in daylight at epoch
Visualization orbit readout
Latitude
Unknown
Longitude
Unknown
Altitude
Unknown
Speed
Unknown
Apparent Right ascension
Unknown
Apparent Declination
Unknown
Sunlit
N/A
Visualization observer readout
Local Sidereal Time
10:03:26
Azimuth
Unknown
Elevation
Unknown
Doppler factor
Unknown
Orbital elements
Apogee altitude
563.845 km
Perigee altitude
510.84 km
Semi-major axis
6,915.479 km
Eccentricity
0.00383
Inclination
64.0778°
RAAN
266.6577°
Arg. of periapsis
312.192°
True anomaly
47.91952°
Mean anomaly
47.5942°
Eccentric anomaly
47.75675°
Mean motion
3.77407 °/min
Orbital period
95.39 mins
BSTAR
0.00025065
Loading maneuver chart data...
Computing Atmospheric mass density...
Loading historical data...
Loading historical data...
Loading historical data...
Loading historical data...
Loading historical data...
Loading historical data...
Loading historical data...
Other satellites on launch #165 in the year 2024 (2024-09-14 UTC)

Documentation

Showing up to 5 results
|